www.pogodaiklimat.ru

Погода и климат >> Архив погоды >> Алжир >> Ин-Салах


АРХИВ ПОГОДЫ в Ин-Салах

Время (UTC), дата Ветер
(напр.,м/с)
 
Видим.   Явления Облачность Т
(С)
Тd
(С)
f
(%)
Тe
(С)
Тes
(С)
Комфортность P
(гПа)
Po
(гПа)
Тmin
(С)
Tmax
(С)
R
(мм)
R24
(мм)
S
(см)
21 9.01 штиль 0 15 км ясно +9.5 -9.2 26 +10 +10 1017.9 1018.0
00 10.01 штиль 0 15 км ясно +6.4 -7.3 37 +6 +6 1017.2 1017.0
03 10.01 штиль 0 15 км ясно +3.4 -11.0 34 +3 +3 1017.0 1017.0
06 10.01 штиль 0 15 км ясно -1.1 -13.6 38 -1 -1 1017.6 1018.0 -1.6
09 10.01 ЮВ 2 20 км 3/0
[Ci sp]
+6.8 -9.0 31 +5 +10 1019.4 1019.0
12 10.01 штиль 0 20 км 3/0
[Ci sp]
+17.6 -5.2 21 +18 +30 опасность
простуды
1017.1 1017.0
15 10.01 З 5 20 км 3/0
[Ci sp]
+20.4 -5.0 18 +20 +22 1014.9 1015.0
18 10.01 ЮЗ 4 15 км 6/0
[Ci sp]
+16.0 -7.1 20 +15 +15 1015.8 1016.0 +20.8
21 10.01 З 3 10 км 6/0
[Ci sp]
+12.2 -10.7 19 +11 +11 1016.5 1017.0
00 11.01 штиль 0 10 км 6/0
[Ci sp]
+8.6 -10.7 24 +9 +9 1016.2 1016.0
03 11.01 штиль 0 15 км ясно +5.4 -11.0 30 +5 +5 1017.0 1017.0
06 11.01 штиль 0 10 км 5/0
[Ci sp]
+2.3 -12.6 32 +2 +2 1016.4 1016.0 +2.1
09 11.01 штиль 0 10 км 3/0
[Ci sp]
+9.4 -10.0 24 +10 +15 1018.5 1019.0
12 11.01 штиль 0 10 км 3/0
[Ci sp]
+19.2 -7.7 15 +19 +31 опасность
простуды
1017.1 1017.0
15 11.01 ЮЗ 4 15 км 3/0
[Ci sp]
+22.4 -7.6 13 +21 +23 комфорт 1016.3 1016.0
18 11.01 штиль 0 15 км 3/0
[Ci sp]
+16.8 -10.9 14 +17 +17 1018.1 1018.0 +22.8
21 11.01 СВ 6 10 км 3/0
[Ci sp]
+13.8 -5.7 25 +12 +12 1021.0 1021.0
00 12.01 СВ 8 10 км 3/0
[Ci sp]
+10.5 -5.5 32 +7 +7 1022.2 1022.0
03 12.01 СВ 5 10 км 3/0
[Ci sp]
+8.4 -5.7 36 +5 +5 1023.0 1023.0
06 12.01 СВ 3 10 км 3/0
[Ci sp]
+3.5 -7.5 44 +1 +1 1024.0 1024.0 +3.2
09 12.01 СВ 5 15 км 3/0
[Ci sp]
+8.5 -6.5 34 +6 +8 1026.3 1026.0
12 12.01 В 10 8000 м пыльный позёмок ясно +13.5 -5.9 25 +11 +11 1024.5 1025.0
15 12.01 СВ 9 8000 м пыльный позёмок ясно +15.9 -8.5 18 +14 +15 1023.1 1023.0
18 12.01 СВ 6 10 км ясно +13.4 -7.6 22 +12 +12 1024.3 1024.0 +16.3
21 12.01 СВ 6 10 км ясно +9.2 -6.0 34 +6 +6 1026.5 1027.0
00 13.01 СВ 8 10 км ясно +7.8 -6.4 36 +4 +4 1025.8 1026.0
03 13.01 СВ 6 10 км ясно +5.4 -7.5 39 +1 +1 1025.6 1026.0
06 13.01 СВ 4 10 км ясно +4.4 -7.4 42 +1 +1 1026.5 1027.0 +4.1
09 13.01 СВ 8 10 км ясно +9.6 -4.8 36 +6 +7 1027.0 1027.0
12 13.01 В 8 10 км ясно +14.1 -3.5 29 +12 +14 1025.2 1025.0
15 13.01 СВ 6 10 км ясно +16.1 -5.3 23 +15 +16 1023.8 1024.0
18 13.01 СВ 5 10 км ясно +13.3 -6.8 24 +12 +12 1024.3 1024.0 +16.6
21 13.01 В 7 10 км ясно +9.9 -8.0 27 +7 +7 1025.3 1025.0
00 14.01 СВ 5 10 км ясно +6.9 -9.7 29 +4 +4 1024.5 1025.0
03 14.01 штиль 0 10 км ясно +4.3 -10.1 34 +4 +4 1024.2 1024.0
06 14.01 СВ 4 10 км ясно +1.6 -10.9 39 -3 -3 1024.5 1025.0 +1.4
09 14.01 СВ 6 10 км ясно +8.8 -5.0 37 +6 +8 1025.3 1025.0
12 14.01 СВ 8 10 км ясно +13.5 -4.1 29 +11 +13 1023.0 1023.0
15 14.01 СВ 6 10 км ясно +15.9 -5.3 23 +15 +16 1021.0 1021.0
18 14.01 штиль 0 10 км ясно +13.3 -7.3 23 +13 +13 1021.1 1021.0 +17.0
21 14.01 штиль 0 10 км ясно +5.9 -10.4 30 +6 +6 1021.8 1022.0
00 15.01 штиль 0 10 км ясно +3.3 -10.4 36 +3 +3 1021.2 1021.0
03 15.01 штиль 0 10 км ясно +0.2 -11.8 40 0 0 1020.5 1021.0
06 15.01 штиль 0 10 км ясно -2.0 -12.8 43 -2 -2 1020.5 1021.0 -2.4
09 15.01 штиль 0 10 км ясно +8.7 -7.2 32 +9 +15 1021.2 1021.0
12 15.01 СВ 4 10 км ясно +16.2 -6.1 21 +16 +22 1019.6 1020.0
15 15.01 В 5 10 км ясно +19.0 -8.3 15 +19 +20 1017.4 1017.0
18 15.01 штиль 0 10 км ясно +15.0 -11.1 15 +15 +15 1018.2 1018.0 +19.8
21 15.01 штиль 0 10 км ясно +9.2 -9.3 26 +9 +9 1019.1 1019.0
00 16.01 штиль 0 10 км ясно +6.4 -9.9 30 +6 +6 1018.4 1018.0
03 16.01 штиль 0 10 км ясно +2.8 -11.0 35 +3 +3 1018.1 1018.0
06 16.01 СЗ 3 10 км ясно +0.2 -12.3 38 -3 -3 1018.2 1018.0 0.0
09 16.01 штиль 0 15 км 3/0
[Ci sp]
+6.9 -9.9 29 +7 +13 1019.9 1020.0
12 16.01 штиль 0 25 км 3/0
[Ci sp]
+19.0 -5.8 18 +19 +31 опасность
простуды
1018.1 1018.0
15 16.01 штиль 0 25 км 3/0
[Ci sp]
+20.3 -8.6 13 +19 +24 1016.1 1016.0
18 16.01 штиль 0 20 км 3/0
[Ci sp]
+17.4 -10.0 14 +17 +17 1016.7 1017.0 +21.3

 

Местоположение метеостанции Ин-Салах (Алжир): широта 27.23 долгота 2.50 высота над уровнем моря 269 м.

В архиве по умолчанию представлена погода в Ин-Салах за последнюю неделю. Архивные данные за месяц целиком и за предыдущие месяцы, начиная с января 2011 года, Вы можете получить, выбрав интересующий диапазон дат из раскрывающегося списка и нажав кнопку "Ввод!".


*Определитесь, кто Вы:
робот инопланетянин человек

Внимание! Время в таблицах - всемирное. Для получения местного времени необходимо прибавить поправку, которая равна 1 ч.

Смотрите также архив погоды в соседних городах и на ближайших метеорологических станциях:

Погода в Араке (Алжир) (254 км)
Погода в Адраре (Алжир) (274 км)
Погода в Тимимуне (Алжир) (313 км)
Погода в Abankor (Алжир) (326 км)
Погода в Moulay Lachen (Алжир) (350 км)
Погода в Эль-Голеа (Алжир) (373 км)
Погода в Ин-Зиза (Алжир) (418 км)
Погода в Mertouek (Алжир) (455 км)
Погода в Роуд-Ноусс (Алжир) (495 км)
Погода в Tin Fouye (Алжир) (514 км)

Пояснения к столбцам:

Ветер - указаны скорость ветра в м/с - средняя за 10 мин, порывы в срок и между сроками (в фигурных скобках) и направление, откуда дует ветер: С - северный, СВ - северо-восточный, В - восточный, ЮВ - юго-восточный, Ю - южный, ЮЗ - юго-западный, З - западный, СЗ - северо-западный.
Видимость - горизонтальная дальность видимости в метрах или километрах. При видимости от 1 до 10 км при отсутствии осадков обычно наблюдается дымка, при ухудшении видимости до 1 км и менее - туман. В сухую погоду видимость может ухудшаться дымом, пылью или мглою.
Явления - указаны атмосферные явления, наблюдавшиеся в срок или в последний час перед сроком; фигурными скобками обозначены явления, наблюдавшиеся между сроками (за 1-3 часа до срока); квадратными скобками обозначены град или гололедные отложения с указанием их диаметра в мм.
Облачность - указаны через наклонную черту общая и нижняя облачность в баллах и высота нижней границы облаков в метрах; квадратными скобками обозначены формы облаков: Ci - перистые, Cs - перисто-слоистые, Cc - перисто-кучевые, Ac - высококучевые, As - высокослоистые, Sc - слоисто-кучевые, Ns - слоисто-дождевые, Cu - кучевые, Cb - кучево-дождевые. Подробнее классификацию облаков см. в Атласе облаков (PDF).
T - Температура воздуха - температура, измеренная на высоте 2 м над землей.
Td - Температура точки росы - температура, при понижении до которой содержащийся в воздухе водяной пар достигнет насыщения.
f - Относительная влажность воздуха - влажноcть воздуха, измеренная на высоте 2 м над землей.
Te - Эффективная температура - температура, которую ощущает одетый по сезону человек в тени. Характеристика душности погоды. При расчете учитывается влияние влажности воздуха и скорости ветра на теплоощущения человека.
Tes - Эффективная температура на солнце - температура, которую ощущает человек, с поправкой на солнечный нагрев. Характеристика знойности погоды. Зависит от высоты солнца над горизонтом, облачности и скорости ветра. Ночью, в пасмурную погоду, а также при ветре 12 м/с и более поправка равна нулю.
P - Атмосферное давление - приведенное к уровню моря атмосферное давление.
Po - Атмосферное давление - измеренное на уровне метеостанции атмосферное давление.
Tmin - Минимальная температура - минимум температуры воздуха на высоте 2 м над землей.
Tmax - Максимальная температура - максимум температуры воздуха на высоте 2 м над землей.
R - Количество осадков - Количество выпавших осадков за период времени, мм. При наведении курсора мыши на число - период времени, за который выпало указанное количество осадков.
R24 - Количество осадков - Количество выпавших осадков за 24 часа, мм.
S - Снежный покров - Высота снежного покрова, см. При наведении курсора мыши на число - состояние снежного покрова и степень покрытия местности в баллах.